SCP
0 0 0 0 0 0 0 0 0 0 0 0 0 0 0 0 0 0 0 0 0 0 1 1 1 1 0 0 0 0 0 0 0 0 0 0 0 0 0 0 0 0 0 0 0 0 0 0 0
0 0 0 0 0 0 0 0 0 0 0 0 0 0 0 0 0 0 0 0 0 1 1 1 1 1 0 0 0 0 0 0 0 0 0 0 0 0 0 0 0 0 0 0 0 0 0 0 0
0 0 0 0 0 0 0 0 0 0 0 0 0 0 0 0 0 0 0 0 0 1 1 1 1 1 0 0 0 0 0 0 0 0 0 0 0 0 0 0 0 0 0 0 0 0 0 0 0
0 0 0 0 0 0 0 0 0 0 0 0 0 0 0 0 0 0 0 0 0 1 1 1 1 1 0 0 0 0 0 0 0 0 0 0 0 0 0 0 0 0 0 0 0 0 0 0 0
0 0 0 0 0 0 0 0 0 0 0 0 0 0 0 0 0 0 0 0 0 1 1 1 1 1 0 0 0 0 0 0 0 0 0 0 0 0 0 0 0 0 0 0 0 0 0 0 0
0 0 0 0 0 0 0 0 0 0 0 0 0 0 0 0 0 0 0 0 0 1 1 1 1 0 0 1 1 1 0 0 0 0 0 0 0 0 0 0 0 0 0 0 0 0 0 0 0
0 0 0 0 0 0 0 0 0 0 0 0 0 0 0 0 0 0 0 0 0 1 1 1 0 0 0 1 1 1 0 0 0 0 0 0 0 0 0 0 0 0 0 0 0 0 0 0 0
0 0 0 0 0 0 0 0 0 0 0 0 0 0 0 0 0 0 0 0 0 1 1 0 0 0 0 1 1 1 1 1 0 0 0 0 0 0 0 0 0 0 0 0 0 0 0 0 0
0 0 0 0 0 0 0 0 0 0 0 0 0 0 1 0 0 0 0 0 0 0 0 0 0 0 0 0 0 1 1 1 1 0 0 0 0 0 0 0 0 0 0 0 0 0 0 0 0
0 0 0 0 0 0 0 0 0 0 0 0 0 0 1 1 0 0 0 0 0 0 0 0 0 0 0 0 0 1 1 1 1 0 1 0 0 0 0 0 0 0 0 0 0 0 0 0 0
0 0 0 0 0 0 0 0 0 0 0 0 0 1 1 1 0 0 0 0 0 0 0 1 1 1 1 1 1 1 1 1 1 1 1 1 1 1 1 1 1 0 0 0 0 0 0 0 0
0 0 0 0 0 0 0 0 0 0 0 0 0 0 0 0 0 0 0 0 1 0 1 1 1 1 1 1 1 1 1 1 1 1 1 1 1 1 1 1 1 1 0 0 0 0 0 0 0
0 0 0 0 0 0 0 0 0 0 0 0 0 0 0 0 0 0 0 1 1 1 1 1 1 1 1 1 1 1 1 1 1 1 1 1 1 1 1 1 1 1 0 0 0 0 0 0 0
0 0 0 0 0 0 0 0 0 0 0 0 0 0 0 0 0 0 0 1 1 1 1 1 1 1 1 1 1 1 1 1 1 1 1 1 1 1 1 1 1 1 0 0 0 0 0 0 0
0 0 0 0 0 0 0 0 0 0 0 0 0 0 0 0 0 0 1 1 1 1 1 1 1 1 1 1 1 1 1 1 1 1 1 1 1 1 1 1 1 1 0 0 0 0 0 0 0
0 0 0 0 0 0 0 0 0 0 0 0 0 0 0 0 0 0 1 1 1 1 1 1 1 1 1 1 1 1 1 1 1 1 1 1 1 1 1 1 1 0 0 0 0 0 0 0 0
0 0 0 0 0 0 0 0 0 0 0 0 0 0 0 1 1 1 1 1 1 1 1 1 1 1 1 1 1 1 1 1 1 1 1 1 1 1 1 1 1 1 0 0 0 0 0 0 0
0 0 0 0 0 0 0 0 0 0 0 0 0 0 0 1 1 1 1 1 1 1 1 1 1 1 1 1 1 1 1 1 1 1 1 1 1 1 1 1 1 0 0 0 0 0 0 0 0
0 0 0 0 0 0 0 0 0 0 0 0 0 0 0 1 1 1 1 1 1 1 1 1 1 1 1 1 1 1 1 1 1 1 1 1 1 1 1 1 1 0 0 0 0 0 0 0 0
0 0 0 0 0 0 0 0 0 0 0 0 0 0 0 1 1 1 1 1 1 1 1 1 1 1 1 1 1 1 1 1 1 1 1 1 1 1 1 1 0 0 0 0 0 0 0 0 0
0 0 0 0 0 0 0 0 0 0 0 0 0 0 0 1 1 1 1 1 1 1 1 1 1 1 1 1 1 1 0 0 0 0 0 0 1 1 1 1 0 0 0 0 0 0 0 0 0
0 0 0 0 0 0 0 0 0 0 0 0 0 0 0 1 1 1 1 1 1 1 1 1 1 1 1 1 1 0 0 0 0 0 0 0 0 0 0 0 0 0 0 0 0 0 0 0 0
0 0 0 0 0 0 0 0 0 0 0 0 0 0 0 1 1 1 1 0 0 1 1 1 1 1 1 1 0 0 0 0 0 0 0 0 0 0 0 0 0 0 0 0 0 0 0 0 0
0 0 0 0 0 0 0 0 0 0 0 0 0 0 0 1 1 1 0 0 0 1 1 1 1 1 1 1 0 0 0 0 0 0 0 0 0 0 0 0 0 0 0 0 0 0 0 0 0
0 0 0 0 0 0 0 0 0 0 0 0 0 0 0 1 1 1 0 0 0 1 1 1 1 1 1 1 0 0 0 0 0 0 0 0 0 0 0 0 0 0 0 0 0 0 0 0 0
0 0 0 0 0 0 0 0 0 0 0 0 0 0 0 0 0 0 0 0 0 0 1 1 1 1 1 0 0 0 0 0 0 0 0 0 0 0 0 0 0 0 0 0 0 0 0 0 0
-0 0 0 0 0 0 0 0 0 0 0 0 0 0 0 0 0 0 0 0 0 0 1 1 1 0 0 0 0 0 0 0 0 0 0 0 0 0 0 0 0 0 0 0 0 0 0 0 0
-0 0 0 0 0 0 0 0 0 0 0 0 0 0 0 0 0 0 0 0 0 0 0 0 0 0 0 0 0 0 0 0 0 0 0 0 0 0 0 0 0 0 0 0 0 0 0 0 0
-0 0 0 0 0 0 0 0 0 0 0 0 0 0 0 0 0 0 0 0 0 0 0 0 0 0 0 0 0 0 0 0 0 0 0 0 0 0 0 0 0 0 0 0 0 0 0 0 0
-0 0 0 0 0 0 0 0 0 0 0 0 0 0 0 0 0 0 0 0 0 0 0 0 0 0 0 0 0 0 0 0 0 0 0 0 0 0 0 0 0 0 0 0 0 0 0 0 0
Wind_Speed
8 11 10 8 6 5 4 2 5 8 8 8 7 7 11 11 9 8 5 7 11 13 13 12 10 10 9 9 8 8 7 7 7 6 6 6 6 6 6 6 6 6 6 6 6 5 5 4 3
9 12 9 7 6 5 2 2 7 9 7 6 6 8 11 11 10 8 7 7 10 13 13 11 11 10 10 9 8 8 8 7 7 6 6 6 6 5 5 5 5 5 5 5 5 5 4 4 3
11 14 7 6 6 4 2 6 7 8 6 5 6 8 8 7 8 6 6 7 10 13 14 13 12 10 9 9 8 8 7 7 7 6 6 6 5 5 5 5 5 5 5 5 5 5 4 4 4
8 8 7 7 5 3 2 5 5 5 5 6 6 8 9 7 6 7 7 7 10 13 14 14 13 11 10 9 8 8 7 6 6 5 5 5 5 4 4 4 4 4 4 4 4 4 4 4 4
10 7 9 8 5 1 4 5 3 4 4 5 6 9 10 9 8 8 7 7 9 12 14 14 13 12 10 9 8 8 7 6 5 5 5 4 4 4 4 4 4 4 4 4 4 4 4 4 4
8 8 8 7 4 1 4 4 2 3 3 4 6 8 10 8 7 6 7 7 9 11 14 13 13 13 11 10 9 8 8 7 5 4 4 4 4 4 4 4 4 4 4 4 4 4 4 4 4
9 10 10 9 3 2 4 4 4 3 5 4 4 7 9 8 6 5 6 8 9 9 11 10 11 11 11 11 10 9 8 7 6 5 4 4 5 5 5 5 4 4 4 4 4 4 4 4 4
9 10 11 8 2 3 3 3 3 4 5 5 4 5 7 7 6 6 7 8 9 8 7 6 7 7 8 9 10 10 9 8 7 6 6 5 5 6 7 6 5 5 5 5 5 5 5 5 6
11 10 8 5 2 2 1 2 4 5 5 6 7 8 9 9 8 7 7 6 7 8 5 4 6 5 5 5 8 9 9 8 7 7 8 7 5 5 6 7 7 7 7 7 7 7 7 7 8
8 7 6 4 3 1 1 1 2 3 5 7 9 11 10 9 8 7 7 6 7 7 5 4 5 3 3 3 4 3 3 4 4 3 3 3 3 3 3 6 8 8 8 8 9 9 8 8 5
8 8 5 4 3 2 0 2 2 1 3 5 8 10 10 8 7 6 6 6 5 5 4 4 4 3 3 2 2 1 1 2 3 2 2 2 2 1 2 2 4 5 6 5 6 7 5 5 3
8 8 4 3 2 3 1 1 2 3 2 6 8 10 9 8 7 5 5 5 5 4 4 5 5 4 3 2 0 1 1 1 1 1 0 1 1 0 0 0 1 2 2 3 2 2 4 3 3
9 7 4 4 4 2 1 1 2 2 4 8 9 9 8 7 7 6 4 4 5 4 4 4 4 3 2 1 1 0 1 1 1 1 1 1 0 0 0 0 1 1 1 1 2 1 2 3 3
8 6 5 5 3 2 3 2 2 5 6 8 9 8 7 7 7 6 5 4 4 4 3 3 3 3 2 1 0 1 1 1 1 1 1 1 0 0 1 0 0 1 1 1 1 2 2 2 2
9 8 8 7 6 5 4 3 3 6 6 7 7 7 7 6 5 5 5 4 4 4 3 2 2 3 2 0 1 1 1 0 0 1 1 1 0 1 0 1 1 1 2 2 1 2 2 2 2
11 11 10 8 8 6 6 3 4 5 5 6 6 7 7 6 6 5 6 4 4 4 3 2 1 2 1 0 1 1 1 0 0 1 1 1 0 0 0 0 1 2 2 1 1 1 1 2 2
11 11 10 6 6 5 5 3 5 5 6 6 5 6 7 7 6 5 5 5 4 4 3 2 1 2 1 1 1 1 1 1 0 1 1 1 0 0 0 0 1 2 1 1 2 1 1 2 2
9 8 9 5 5 4 4 4 7 7 6 5 6 6 6 6 6 6 5 5 5 4 3 2 2 2 1 1 0 0 0 1 0 0 1 1 1 0 1 1 1 2 1 1 1 2 1 2 2
10 10 9 4 4 4 5 4 7 8 6 7 6 5 5 5 6 5 4 4 5 4 3 2 2 1 1 0 0 1 1 1 1 1 1 1 1 1 1 1 1 2 1 2 2 2 2 2 1
8 10 10 4 1 3 4 5 5 6 7 7 6 6 5 5 4 4 4 4 4 4 3 3 2 1 1 0 0 1 1 2 2 1 1 1 2 2 2 1 2 1 1 2 3 2 2 2 1
10 10 9 5 4 7 7 6 5 6 5 4 6 6 6 5 5 5 3 3 3 4 4 3 2 1 1 1 0 1 1 2 1 0 1 1 1 2 2 2 2 2 2 2 2 2 3 2 2
9 9 8 7 7 8 8 6 7 7 5 5 4 5 5 6 5 4 3 3 2 3 3 3 3 2 1 1 1 2 2 1 2 1 1 1 2 2 2 2 2 2 2 2 3 2 2 2 2
9 10 9 10 10 11 8 5 4 7 6 5 6 5 4 5 6 5 4 3 2 3 3 3 3 2 1 0 1 1 1 1 1 1 1 1 2 2 2 2 2 2 2 2 2 1 2 2 2
10 10 10 10 9 10 7 4 3 5 5 5 4 4 4 3 4 5 5 4 2 3 4 3 2 2 1 1 1 1 2 2 1 2 1 1 1 1 2 2 1 1 1 2 2 2 2 2 3
8 7 6 6 5 6 2 2 4 5 6 5 4 3 3 3 4 4 4 4 3 3 3 3 3 2 2 1 1 1 2 2 2 2 2 2 1 1 1 1 1 1 2 2 2 2 3 3 3
6 7 6 6 6 5 4 2 5 6 7 5 4 4 4 2 3 3 4 4 3 3 3 3 3 1 1 1 1 1 1 1 1 1 2 2 1 1 1 0 1 1 2 2 2 3 3 2 3
6 6 8 7 10 8 1 3 5 5 5 4 4 5 4 3 3 3 4 4 3 3 2 3 2 1 1 1 1 1 1 1 1 1 2 2 1 1 0 0 1 1 1 1 2 2 2 2 2
7 7 5 6 7 7 3 2 2 4 3 3 3 5 4 4 3 3 4 4 3 3 3 3 2 1 1 1 1 1 1 1 1 1 1 1 2 2 1 1 1 1 1 1 2 2 2 2 1
6 6 5 6 7 7 4 2 4 4 2 2 2 4 4 4 4 4 3 3 3 3 3 2 2 2 2 1 1 1 1 1 1 1 1 1 1 2 1 1 1 1 1 1 2 2 2 1 1
6 6 4 5 7 7 5 2 4 4 3 3 3 4 4 4 4 4 4 3 2 2 2 2 2 3 2 2 2 1 1 1 1 1 2 1 1 1 1 1 1 2 1 1 2 2 2 1 1
Wind_Direction
241 244 237 245 240 241 255 294 59 62 67 63 52 65 69 54 62 91 111 111 109 113 118 118 117 122 125 126 125 125 125 122 120 120 121 120 119 123 125 126 128 138 144 144 143 143 141 140 142
257 248 241 248 252 244 262 53 74 71 63 78 73 70 74 68 74 99 107 112 116 119 122 122 124 125 126 126 125 123 126 127 126 125 125 126 124 126 129 134 139 145 149 152 153 155 158 158 160
258 259 254 251 255 275 342 56 72 78 71 71 80 65 64 72 77 94 106 121 119 118 119 121 125 124 124 124 124 124 125 126 128 130 131 131 133 135 137 141 147 153 159 165 170 172 175 172 179
248 234 232 247 251 267 357 61 70 85 74 64 78 81 78 73 85 106 118 118 115 117 119 125 130 130 129 129 128 128 127 126 127 129 134 137 142 146 150 156 162 165 171 179 180 181 188 189 193
241 250 244 255 249 146 74 54 48 65 63 66 76 89 83 79 91 109 121 118 118 117 122 130 134 134 133 130 130 129 128 128 130 132 135 141 150 157 158 168 173 175 181 185 185 185 192 196 202
247 250 259 262 247 118 80 75 49 83 71 62 85 99 94 91 93 108 116 111 112 114 121 130 139 141 141 137 134 130 129 131 133 139 149 159 161 165 172 177 182 180 187 193 194 197 199 203 210
255 274 272 269 255 102 84 71 48 48 62 53 54 97 103 99 96 104 107 97 97 102 116 135 144 148 149 145 142 141 142 147 154 160 167 175 181 184 184 187 189 189 194 201 206 210 210 210 215
255 280 285 283 282 69 83 83 65 62 70 61 49 81 110 116 121 115 101 93 93 92 100 129 132 137 146 150 153 154 159 169 174 180 186 193 198 200 197 193 191 201 207 209 209 211 217 220 222
247 261 278 297 339 56 65 98 106 106 108 80 71 82 111 130 131 125 118 111 105 98 102 125 120 126 138 143 145 163 172 182 187 193 201 203 210 200 199 197 186 199 211 215 216 218 221 226 225
242 257 273 302 338 75 35 68 140 148 125 102 94 96 114 127 129 130 123 118 114 111 115 108 94 94 107 115 128 158 170 160 188 192 192 208 214 213 206 170 185 202 210 217 223 227 228 229 223
238 252 278 305 333 307 134 57 6 105 107 114 118 117 121 123 122 127 116 111 104 109 107 103 95 83 79 77 110 147 178 165 194 168 188 220 234 206 181 168 180 200 208 218 217 221 225 223 220
246 255 251 277 302 292 332 77 13 20 76 97 113 125 130 129 125 120 114 116 111 111 109 91 88 75 63 60 71 199 176 164 209 140 194 259 253 157 152 165 194 199 193 207 215 212 217 225 234
250 253 244 235 236 223 230 169 126 105 105 111 120 128 131 129 124 117 118 110 102 99 94 89 88 94 91 82 302 318 244 206 213 148 178 239 249 282 199 227 243 247 229 220 226 235 235 233 231
259 256 246 241 232 196 227 205 196 138 132 126 132 134 136 132 128 120 111 100 95 91 87 93 107 110 107 119 241 263 258 216 195 146 160 176 157 234 265 225 260 276 270 246 240 240 253 243 240
260 251 238 225 211 207 215 223 165 143 145 144 141 137 129 124 123 122 114 114 100 90 85 92 129 104 94 70 283 268 272 223 129 136 133 159 190 185 269 246 239 257 260 254 242 257 255 247 241
251 246 243 223 208 199 223 226 137 139 159 158 148 141 133 128 139 130 119 106 101 97 94 79 46 91 95 3 292 319 318 345 167 155 134 128 150 242 245 271 271 275 274 275 245 235 266 276 266
248 246 247 220 202 208 232 210 143 164 178 167 149 147 141 140 139 125 120 111 102 101 107 111 69 82 79 332 325 338 344 335 293 97 109 122 131 295 291 283 289 278 275 279 280 252 246 268 275
271 267 259 230 198 221 224 190 152 176 192 166 157 152 145 144 141 132 127 125 116 112 111 119 105 99 118 146 344 299 259 259 251 123 124 129 165 253 287 215 274 293 288 271 264 280 260 254 259
280 279 277 254 179 233 239 201 175 184 180 174 167 154 143 139 132 125 126 127 124 127 126 122 114 109 135 127 247 252 245 255 255 195 155 182 202 232 257 264 252 254 247 271 281 269 273 260 242
269 275 273 270 206 266 262 237 196 186 191 176 160 153 143 137 132 131 132 130 137 138 130 123 118 115 140 118 263 252 265 253 225 203 190 215 205 216 237 229 253 253 245 254 256 257 259 272 260
258 263 270 281 278 264 261 243 211 184 186 170 161 150 144 145 143 136 139 142 149 146 140 132 139 158 162 150 247 286 260 267 266 187 249 260 234 216 236 235 241 248 240 242 253 260 259 262 265
259 269 270 262 255 260 245 253 203 178 188 183 174 159 150 145 142 145 145 155 175 160 146 134 140 144 139 164 220 254 255 260 278 267 227 266 252 237 232 224 231 234 238 249 257 248 263 265 265
270 276 267 257 257 261 246 251 181 162 191 190 182 169 153 151 152 153 154 162 171 145 122 114 120 121 118 190 229 249 289 302 306 293 232 252 252 245 237 217 225 222 225 240 262 284 271 266 269
271 272 266 253 257 256 243 243 178 173 163 173 169 143 140 141 142 143 143 141 137 119 113 122 131 132 136 179 196 245 265 276 297 301 298 282 269 254 234 228 209 214 226 248 254 255 254 253 265
267 279 284 281 257 265 255 212 140 134 136 145 139 122 111 138 130 130 137 126 115 121 121 130 136 158 163 175 210 234 256 266 271 283 285 279 281 264 256 250 211 220 232 246 234 245 246 243 254
275 272 278 291 290 284 249 184 126 114 115 119 122 122 121 118 118 122 129 127 139 138 131 130 137 152 154 180 217 248 277 277 284 292 295 287 289 271 209 231 234 248 244 261 248 252 249 245 248
264 273 287 285 281 282 281 107 115 111 110 110 119 118 121 120 112 112 120 123 120 129 134 132 130 139 170 223 196 211 248 284 298 309 286 288 302 304 63 27 278 279 277 278 269 264 268 253 252
260 281 286 281 286 287 257 190 139 128 132 142 140 133 134 130 129 122 118 121 130 141 149 134 133 168 204 241 243 221 224 269 305 309 314 311 316 310 293 269 272 289 307 291 277 275 262 247 247
253 262 279 295 296 304 311 57 102 120 121 130 110 110 111 128 134 131 127 129 144 151 146 152 167 176 185 210 217 248 214 245 262 270 286 297 292 294 300 281 273 276 281 281 276 264 272 264 261
270 279 288 287 302 308 307 71 64 85 87 93 108 110 108 120 132 132 129 127 136 145 137 152 174 174 187 195 189 224 222 235 244 276 284 290 284 279 288 272 247 251 253 268 278 276 280 275 251